Location: Fiume Serio
(45.2667°N, 9.7500°E)
Time: 15:45:45
(UTC+00:00)

Daily predictions for brighter satellites

Satellite Brightness Start Highest point End
(mag) Time Altitude Azimuth Time Altitude Azimuth Time Altitude Azimuth
CENTAUR R/B 4.2 19:17:46 10° NW 19:25:41 47° WSW 19:34:10 10° S
COBE Rocket 4.2 19:25:35 10° S 19:30:41 77° WSW 19:35:40 10° NNW
Cosmos 1184 Rocket 3.8 19:28:11 10° SSE 19:30:41 24° E 19:33:11 10° NE
Cosmos 968 Rocket 4.0 19:29:09 10° SSW 19:34:16 65° WNW 19:39:23 10° NNE
Cosmos 1151 Rocket 3.8 19:32:57 10° SSW 19:37:09 54° WNW 19:41:21 10° N
Meteor 1-10 Rocket 4.3 19:31:46 10° S 19:37:19 88° E 19:42:58 10° N
Cosmos 405 2.9 19:34:44 10° N 19:38:09 88° ENE 19:41:35 10° S
JB-3 4.5 19:34:42 10° NNE 19:38:53 88° E 19:43:03 10° SSW
Cosmos 389 Rocket 3.0 19:35:33 10° N 19:38:54 41° ENE 19:42:13 10° SSE
Cosmos 1933 Rocket 4.1 19:37:05 10° N 19:41:24 45° ENE 19:45:40 10° SSE
EXPRESS MD2 3.7 19:35:49 10° WNW 19:42:42 87° SSW 19:46:10 10° ESE
Cosmos 1666 Rocket 4.5 19:39:12 10° NNW 19:43:28 51° W 19:47:45 10° S
Cosmos 1515 3.7 19:40:19 10° S 19:44:01 60° E 19:47:45 10° NNE
CZ-4B R/B 1.2 19:42:24 10° NNE 19:45:36 67° ESE 19:48:43 10° S
SPOT 1/Viking Rocket 3.6 19:40:35 10° SSE 19:45:41 66° ENE 19:50:49 10° N
Helios 1A Rocket 4.3 19:43:05 10° ESE 19:46:16 23° ENE 19:49:28 10° NNE
Resurs 1-3 4.4 19:42:15 10° S 19:46:31 52° W 19:50:50 10° NNW
Meteor 1-27 Rocket 3.8 19:40:59 10° S 19:46:42 68° E 19:52:33 10° NNE
Cosmos 2034 Rocket 4.4 19:45:45 10° SSE 19:51:39 45° E 19:57:39 10° NNE
Cosmos 1633 Rocket 3.9 19:47:26 10° NNW 19:51:41 50° W 19:55:53 10° SSW
Cosmos 2219 3.5 19:47:22 10° NNW 19:52:57 66° WSW 19:58:30 10° SSE
SJ 16-02 2.1 19:49:40 10° SSE 19:53:32 31° E 19:57:25 10° NE
Cosmos 2278 4.4 19:49:00 10° SSE 19:53:57 32° ESE 19:58:56 10° NE
Cosmos 1340 2.6 19:50:40 10° S 19:54:21 70° E 19:58:06 10° NNE
OE (NEXTSAT) 4.2 19:51:09 10° WSW 19:54:24 57° SSE 19:57:39 10° E
Cosmos 1315 Rocket 4.4 19:51:10 10° NNW 19:54:53 35° W 19:58:33 10° SSW
Cosmos 2082 3.7 19:54:10 10° NNW 19:59:49 76° ENE 20:04:59 12° SSE
Meteor 1-11 Rocket 4.1 19:54:52 10° NNW 20:00:51 73° W 20:06:45 10° S
Cosmos 2263 Rocket 2.8 19:57:34 10° NNW 20:02:53 43° ENE 20:07:29 13° SE
Cosmos 1470 Rocket 3.9 19:58:48 10° NNW 20:03:06 65° W 20:07:22 10° S
Ariane Rocket 3.0 20:00:29 10° SSE 20:05:33 89° WSW 20:10:41 10° NNW
Cosmos 1743 2.7 20:02:32 10° N 20:06:20 82° W 20:10:06 10° S
SPOT 5 3.7 20:06:30 14° SE 20:10:43 41° ENE 20:15:31 10° N
BREEZE-M DEB (TANK) 3.4 20:09:02 10° W 20:11:35 34° NNW 20:13:38 10° ENE
IRAS Rocket 4.4 20:06:39 10° NNE 20:12:18 85° WNW 20:17:56 10° SSW
Terra 3.0 20:09:04 13° ESE 20:12:24 28° ENE 20:16:27 10° N
Resurs 01 Rocket 2.3 20:10:04 10° S 20:14:21 53° W 20:18:41 10° NNW
Cosmos 1346 Rocket 4.4 20:15:00 16° ESE 20:16:28 19° E 20:19:18 10° NE
Aureole 1 Rocket 3.2 20:13:26 10° SW 20:16:32 47° WNW 20:19:27 10° N
Cosmos 1515 Rocket 4.1 20:12:48 10° SSW 20:17:07 62° W 20:21:30 10° N
Cosmos 1809 Rocket 4.4 20:12:58 10° N 20:19:08 79° E 20:24:46 13° SSE
Cosmos 2227 Rocket 3.5 20:15:39 10° NW 20:20:46 36° WSW 20:25:51 10° S
Cosmos 921 Rocket 3.1 20:17:33 10° NNW 20:22:06 84° WSW 20:25:38 16° SSE
Cosmos 783 Rocket 4.5 20:22:34 10° NNW 20:27:48 78° ENE 20:31:34 19° SSE
Cosmos 1980 Rocket 2.3 20:23:42 10° SSW 20:29:21 85° WNW 20:35:03 10° NNE
CARTOSAT-1 3.6 20:26:14 15° S 20:29:47 79° WSW 20:34:07 10° NNW
Cosmos 1869 Rocket 3.6 20:26:59 10° N 20:31:28 72° E 20:34:33 20° SSE
SL-24 R/B - RUBIN 2 4.4 20:27:28 10° NNW 20:31:39 42° NE 20:34:40 18° ESE
Cosmos 2228 Rocket 3.2 20:29:01 15° S 20:32:45 62° E 20:37:15 10° NNE
Cosmos 1464 Rocket 4.4 20:27:43 10° SSW 20:33:52 64° W 20:40:00 10° N
Cosmos 1378 3.4 20:34:32 24° SSE 20:36:20 46° E 20:39:52 10° NNE
Cosmos 2344 3.6 20:30:13 10° SW 20:37:45 82° NW 20:45:29 10° NE
Cosmos 2322 Rocket 3.4 20:36:17 20° SE 20:38:06 23° ESE 20:42:24 10° NE
Cosmos 1777 Rocket 4.0 20:33:24 10° S 20:38:34 68° ESE 20:43:46 10° NNE
Cosmos 2369 4.2 20:33:30 10° SW 20:39:04 63° WNW 20:44:44 10° NNE
Spot 2 Rocket 3.5 20:35:42 20° SSE 20:39:14 75° ENE 20:44:18 10° N
ISS -3.5 20:36:16 10° WNW 20:39:36 64° NNE 20:41:27 24° ESE
Cosmos 1354 Rocket 4.2 20:34:32 10° SSW 20:39:48 77° WNW 20:45:09 10° NNE
SPOT 3 Rocket 3.7 20:36:10 15° S 20:40:27 70° WSW 20:45:36 10° NNW
Cosmos 773 Rocket 4.0 20:36:34 10° NNW 20:41:49 82° WSW 20:45:19 21° SSE
Cosmos 1844 Rocket 4.4 20:37:50 10° N 20:42:09 22° NE 20:46:18 11° E
ATLAS 2AS CENTAUR R/B 2.9 20:34:33 10° SSW 20:42:22 81° SE 20:49:58 10° NE
Okean 1 3.6 20:40:11 10° SSW 20:44:06 69° W 20:48:07 10° N
Meteor 2-4 Rocket 3.9 20:40:22 18° SSE 20:44:31 54° E 20:50:02 10° NNE
Meteor 1-19 Rocket 4.2 20:40:46 10° SSW 20:46:12 81° WNW 20:51:38 10° N
Cosmos 1092 Rocket 3.9 20:41:38 10° N 20:47:50 76° E 20:52:05 21° SSE
RESURS DK-1 2.3 20:44:06 10° SSW 20:48:13 85° WNW 20:52:22 10° NNE
Cosmos 1697 Rocket 4.5 20:43:24 10° WSW 20:48:31 34° NW 20:53:41 10° NNE
Nadezhda 4 Rocket 4.3 20:42:26 10° NNW 20:48:36 63° W 20:54:07 13° S
SL-4 R/B 3.8 20:46:45 10° W 20:50:19 23° SW 20:52:09 18° SSW
Cosmos 1634 Rocket 4.0 20:49:58 19° S 20:54:32 65° E 21:00:39 10° NNE
ARIANE 5 R/B 2.9 20:53:39 28° SE 20:55:49 57° ENE 21:00:15 10° N
Cosmos 1707 Rocket 3.6 20:54:13 27° SSE 20:56:27 59° E 21:00:48 10° NNE
ATLAS CENTAUR R/B 4.0 20:54:09 10° NNW 20:57:34 18° NNE 21:00:54 10° ENE
Cosmos 44 Rocket 3.2 20:54:27 10° NNW 20:59:10 79° NE 21:01:28 30° SE
Cosmos 2227 4.2 20:59:02 10° NNW 21:04:50 83° ENE 21:07:59 28° SSE
Cosmos 1733 4.5 21:02:33 10° NNE 21:05:46 26° ENE 21:06:32 24° E
Cosmos 158 Rocket 4.0 21:01:30 10° NNW 21:06:40 84° WSW 21:09:24 29° SSE
ATLAS 3B R/B 3.1 21:01:02 10° NW 21:08:23 68° NE 21:13:25 23° SE
NOSS 2-1 (E) 2.7 21:08:10 51° SSE 21:08:36 57° SE 21:11:45 10° NE
Cosmos 1975 2.9 21:07:47 10° NNW 21:11:51 72° W 21:13:33 33° S
USA 81 4.0 21:09:01 26° S 21:12:05 80° E 21:17:23 10° N
Cosmos 2026 Rocket 4.0 21:06:54 10° N 21:13:05 82° W 21:17:00 24° S
ERS-1 Rocket 3.3 21:12:32 25° S 21:15:27 61° W 21:20:27 10° NNW
SL-16 R/B 2.2 21:13:28 22° S 21:17:07 65° ESE 21:22:44 10° NNE
Meteor 1-4 Rocket 3.2 21:15:56 10° N 21:19:12 37° ENE 21:19:36 35° E
CZ-4C R/B 4.4 21:14:00 10° NNW 21:19:50 29° NNE 21:26:34 10° E
Helios 1A Rocket 4.3 21:19:01 19° SSW 21:21:12 31° W 21:24:47 10° NNW
Cosmos 1538 Rocket 3.9 21:16:47 10° NNW 21:22:03 87° WSW 21:24:18 35° SSE
GENESIS II 4.2 21:20:46 17° SW 21:23:39 79° NW 21:27:36 10° NE
CZ-2C R/B 4.3 21:19:27 10° N 21:24:10 61° WNW 21:27:47 17° SSW
Cosmos 1733 Rocket 3.0 21:21:41 10° N 21:26:10 88° W 21:27:44 40° S
Meteor 2-8 Rocket 4.5 21:25:01 21° SSW 21:29:19 78° W 21:35:26 10° N
Geosat 4.1 21:28:35 35° SE 21:30:41 71° ENE 21:35:43 10° NNW
OE (NEXTSAT) 4.3 21:28:04 10° W 21:31:22 76° N 21:32:08 49° ENE
SJ 16-02 3.4 21:28:22 10° WSW 21:32:05 27° WNW 21:35:50 10° N
SAR-Lupe-4 3.4 21:29:10 10° NNE 21:32:47 82° ESE 21:33:21 61° S
Cosmos 1356 3.7 21:35:10 50° ENE 21:35:10 50° ENE 21:38:07 10° NNE
Cosmos 1908 Rocket 4.1 21:33:36 10° N 21:37:45 43° ENE 21:38:37 38° ESE
Cosmos 1862 Rocket 3.6 21:37:31 37° SSW 21:39:14 79° W 21:43:45 10° N
Cosmos 923 Rocket 4.2 21:34:53 10° NNW 21:40:12 61° ENE 21:42:10 37° SE
Cosmos 2360 Rocket 2.5 21:40:43 38° SSE 21:42:12 48° ESE 21:47:37 10° NE
Cosmos 1937 Rocket 4.2 21:42:39 33° ESE 21:43:20 35° ESE 21:48:05 10° NE
Cosmos 1726 3.2 21:41:41 10° N 21:45:02 32° ENE 21:45:09 32° E
ALOS 2 4.3 21:44:37 19° E 21:45:55 22° ENE 21:49:17 10° NNE
Meteor 1-13 Rocket 4.2 21:44:29 39° SSE 21:46:33 68° E 21:52:03 10° NNE
Cosmos 2263 Rocket 3.4 21:41:48 10° NW 21:46:38 31° WSW 21:49:11 21° SSW
Cosmos 2266 Rocket 4.2 21:42:45 10° N 21:48:56 59° ENE 21:51:20 36° SE
NOSS 2-1 (C) 4.0 21:46:44 16° WSW 21:49:02 41° NW 21:52:08 10° NNE
Terra 2.9 21:47:57 24° SW 21:50:02 35° W 21:54:25 10° NNW
Cosmos 1441 Rocket 3.3 21:51:04 53° SW 21:51:43 67° W 21:55:26 10° N
Cosmos 1346 Rocket 4.2 21:50:23 21° SW 21:52:29 35° WNW 21:56:12 10° N
Cosmos 2279 Rocket 4.2 21:53:29 26° SSW 21:57:07 68° W 22:03:20 10° N
Cosmos 990 Rocket 4.0 21:57:54 35° SSW 22:00:12 84° WNW 22:05:29 10° NNE
USA 215 3.3 21:54:15 10° ENE 22:00:39 53° SE 22:03:42 31° SSW
Cosmos 2112 Rocket 4.3 21:55:29 10° NNW 22:00:47 59° ENE 22:02:27 40° SE
Cosmos 1680 Rocket 3.6 21:56:33 10° NNW 22:01:52 70° ENE 22:03:25 45° SE
Cosmos 1842 4.3 22:03:47 33° E 22:03:47 33° E 22:06:59 10° NNE
Iridium 2 4.3 22:00:17 10° NNW 22:03:52 44° W 22:04:23 41° WSW
Meteor 1-12 Rocket 4.2 22:00:55 10° N 22:06:54 87° E 22:08:54 44° SSE
Cosmos 1066 Rocket 4.4 22:05:06 33° SSW 22:07:47 72° WNW 22:13:28 10° N
ADEOS Rocket 4.1 22:05:31 22° ESE 22:08:07 32° ENE 22:13:21 10° N
Spot 4 4.1 22:07:13 46° ESE 22:08:21 59° ENE 22:13:04 10° N
Cosmos 1818 3.7 22:04:45 10° NNW 22:10:13 67° NE 22:12:08 40° ESE
Iridium 4 Rocket 3.2 22:08:07 10° N 22:12:45 78° E 22:13:44 56° SSE
Cosmos 1898 Rocket 3.4 22:11:50 45° SSW 22:13:31 86° ESE 22:18:53 10° NNE
ISS -1.3 22:13:29 10° W 22:14:21 15° W 22:14:21 15° W
Cosmos 1900 4.3 22:15:19 53° S 22:16:27 75° ESE 22:21:35 10° NE
Okean 1-7 3.0 22:17:25 64° SSW 22:18:04 83° W 22:22:28 10° N
Cosmos 2322 Rocket 2.7 22:18:02 21° SW 22:21:42 57° WNW 22:27:15 10° NNE
Okean 3 3.3 22:25:02 77° S 22:25:19 90° E 22:29:36 10° N
Cosmos 2322 4.1 22:25:29 42° SE 22:26:13 44° ESE 22:31:38 10° NE
Cosmos 2333 Rocket 2.2 22:25:18 50° SSE 22:26:26 61° ESE 22:32:02 10° NNE
Cosmos 1844 Rocket 2.7 22:21:02 10° NNW 22:26:36 70° WSW 22:27:57 51° S
Cosmos 1805 4.4 22:24:39 10° NNW 22:28:09 32° W 22:28:28 32° WSW
H-2A R/B 3.4 22:28:17 10° NNE 22:32:20 69° E 22:32:20 69° E
Cosmos 1461 4.2 22:28:47 10° NNW 22:32:38 35° NE 22:33:54 29° E
BREEZE-M DEB (TANK) 3.6 22:30:13 10° W 22:31:52 30° WSW 22:31:52 30° WSW
ATLAS 2AS CENTAUR R/B 4.5 22:27:11 10° W 22:34:06 34° NW 22:40:47 10° NNE
Meteor 1-23 Rocket 4.3 22:34:01 46° SSW 22:35:53 83° W 22:41:46 10° N
USA 267 3.7 22:29:45 11° ESE 22:35:57 59° NNE 22:42:23 10° NW
ATLAS CENTAUR R/B 1.6 22:32:15 10° NW 22:37:08 82° NE 22:37:50 64° SE
Cosmos 1766 4.0 22:39:39 10° NNW 22:43:23 42° W 22:43:23 42° W
Cosmos 2219 Rocket 2.1 22:44:47 55° SSE 22:45:47 66° ESE 22:51:20 10° NNE
Cosmos 1703 Rocket 4.4 22:48:16 37° WSW 22:49:11 42° WNW 22:53:24 10° N
Cosmos 1844 4.0 22:44:38 10° NW 22:50:17 55° WSW 22:51:27 47° SSW
Cosmos 2221 Rocket 4.4 22:51:06 36° E 22:51:07 36° E 22:55:11 10° NNE
Cosmos 372 Rocket 3.9 22:51:17 57° SSW 22:52:21 84° WNW 22:57:34 10° NNE
ATLAS 3B R/B 3.8 22:52:22 10° NW 22:58:43 31° WSW 23:00:38 28° SW
Cosmos 1707 2.8 23:00:36 70° NE 23:00:36 70° NE 23:04:08 10° N
SL-16 R/B 4.2 22:57:09 10° WSW 23:01:42 24° NW 23:06:16 10° N
NOSS 3-1 (A) 4.3 22:55:22 10° NW 23:02:45 68° NE 23:08:57 21° SE
Cosmos 1782 Rocket 4.3 23:00:32 10° NNW 23:04:38 41° W 23:04:50 40° W
Okean 2 3.6 23:06:39 59° ENE 23:06:39 59° ENE 23:10:28 10° NNE
ERS-2 2.5 23:03:38 10° N 23:06:52 59° NW 23:06:52 59° NW
CZ-4C R/B 3.0 23:02:07 10° NW 23:09:24 81° NE 23:14:17 28° SE
USA 290 3.9 23:10:46 30° NE 23:10:46 30° NE 23:12:38 10° NNE
NOSS 3-1 (C) 4.0 23:02:34 10° NW 23:10:06 78° SW 23:14:02 37° SSE
Cosmos 1238 Rocket 3.9 23:10:03 10° N 23:11:57 30° NE 23:11:57 30° NE
Cosmos 2237 Rocket 3.2 23:14:56 29° ESE 23:15:34 30° ESE 23:20:28 10° NE
KORONAS-FOTON 4.0 23:16:49 64° NE 23:16:49 64° NE 23:20:10 10° NNE
COSMOS 2428 2.6 23:17:53 56° SSW 23:19:10 84° ESE 23:24:54 10° NNE
Cosmos 1470 3.6 23:15:47 10° NNW 23:19:01 39° WNW 23:19:01 39° WNW
Cosmos 1726 4.3 23:17:19 10° NW 23:19:26 17° W 23:19:26 17° W
Cosmos 1300 Rocket 3.9 23:16:35 10° NNW 23:20:49 52° W 23:20:51 52° W
ALOS 2 3.3 23:22:00 40° W 23:22:00 40° W 23:26:09 10° NNW
Cosmos 1745 Rocket 4.3 23:16:41 10° N 23:22:49 57° ENE 23:25:02 38° SE
PSLV R/B 3.6 23:19:06 10° NNE 23:23:30 66° ESE 23:23:40 65° ESE
Cosmos 2151 Rocket 3.5 23:19:18 10° N 23:23:43 76° E 23:23:57 73° ESE
Resurs 1-4 Rocket 4.5 23:23:07 10° ENE 23:23:58 10° E 23:24:49 10° E
USA 305 4.0 23:26:44 33° E 23:26:44 33° E 23:29:22 10° ENE
Cosmos 2360 Rocket 3.7 23:22:25 14° WSW 23:26:24 30° NW 23:31:22 10° N
Cosmos 1242 Rocket 3.1 23:23:13 10° NNW 23:26:07 53° NW 23:26:07 53° NW
Cosmos 405 Rocket 3.3 23:28:20 48° ENE 23:28:20 48° ENE 23:31:31 10° NNE
Okean 2 Rocket 2.9 23:23:16 10° N 23:27:50 86° WSW 23:28:05 79° SSW
Cosmos 1943 Rocket 4.4 23:26:23 10° N 23:30:36 21° NE 23:34:48 10° E
In-Cosmos 22 4.2 23:29:31 52° SW 23:30:50 73° WNW 23:36:20 10° N
Cosmos 1437 Rocket 3.3 23:30:03 10° N 23:33:33 48° ENE 23:33:33 48° ENE
Nimbus 7 Rocket 4.3 23:28:42 10° NNE 23:34:37 87° ESE 23:36:12 51° SSW
Cosmos 1908 3.3 23:31:24 10° N 23:34:48 70° N 23:34:48 70° N
Cosmos 1867 3.6 23:33:44 49° SW 23:35:15 78° NW 23:40:46 10° NNE
Cosmos 2298 Rocket 4.2 23:34:33 52° SE 23:35:18 58° ESE 23:40:31 10° NNE
Meteor 1-21 4.5 23:34:35 45° SW 23:36:14 63° WNW 23:42:01 10° N
Cosmos 1626 2.4 23:37:36 63° NNW 23:37:36 63° NNW 23:40:47 10° N
SL-08 R/B 4.5 23:33:20 10° NNW 23:39:37 75° W 23:41:27 48° SSW
USA 215 3.8 23:37:19 10° NE 23:43:42 58° NNW 23:50:05 10° WSW
Cosmos 1953 2.5 23:40:44 10° N 23:44:42 61° E 23:44:46 61° E
Cosmos 2278 Rocket 2.2 23:41:08 10° NNW 23:46:51 76° ENE 23:48:50 42° SE
Cosmos 468 4.4 23:42:51 10° NNW 23:48:05 82° WSW 23:49:03 60° S
Cosmos 1674 3.5 23:50:45 42° WNW 23:50:45 42° WNW 23:54:06 10° N
ADEOS Rocket 3.4 23:52:27 37° WSW 23:53:31 41° W 23:59:07 10° NNW
Sich 1 Rocket 4.5 23:49:57 10° NNW 23:53:58 35° W 23:54:00 35° W
